Regional Weather Roundup
Issued by NWS Cleveland, OH

Home | Current Version | Previous Version | Graphics & Text | Print | Product List | Glossary On
Versions: 1 2 3 4 5 6 7 8 9 10 11 12 13 14 15 16 17 18 19 20 21 22 23 24 25 26 27 28 29 30 31 32 33 34 35 36 37 38 39 40 41 42 43 44 45 46 47 48 49 50
000
ASUS41 KCLE 300102
RWRCLE
OHIO REGIONAL WEATHER ROUNDUP
NATIONAL WEATHER SERVICE CLEVELAND, OH
900 PM EDT WED MAR 29 2017

NOTE: "FAIR" INDICATES FEW OR NO CLOUDS BELOW 12,000 FEET WITH NO
SIGNIFICANT WEATHER AND/OR OBSTRUCTIONS TO VISIBILITY.

OHZ001>008-015>018-024>027-034-035-043-044-300200-
   NORTHWEST OHIO

CITY           SKY/WX    TMP DP  RH WIND       PRES   REMARKS
DEFIANCE       PTCLDY    47  33  58 E14       30.13F
FINDLAY        MOCLDY    48  31  51 E17       30.13F
TOLEDO EXPRESS MOCLDY    46  31  55 E9        30.16F
TOLEDO EXEC    PTCLDY    47  33  58 E13       30.17F
LIMA           CLOUDY    47  33  58 E14       30.15R
$$

OHZ009>014-019>023-028>033-038-089-300200-
   NORTHEAST OHIO

CITY           SKY/WX    TMP DP  RH WIND       PRES   REMARKS
CLE-HOPKINS    MOCLDY    51  30  44 NE10      30.21F
CLE-LAKEFRONT  MOCLDY    43  37  79 NE6       30.19F
CUY CO. ARPT   CLOUDY    48  32  53 E10       30.21F
LORAIN-ELYRIA  PTCLDY    47  30  51 E12       30.19F
ASHTABULA      PTCLDY    46  31  55 NE3       30.24F
AKRON-CANTON   PTCLDY    48  30  49 NE13      30.17F
WOOSTER        CLEAR     47  32  56 NE14      30.16F
MANSFIELD      CLOUDY    44  31  60 NE9       30.15F
YOUNGSTOWN     CLOUDY    46  31  55 NE9       30.21F
$$

OHZ042-051>053-060>062-070>072-077>081-300200-
  SOUTHWEST OHIO

CITY           SKY/WX    TMP DP  RH WIND       PRES   REMARKS
CINC-COVINGTON PTCLDY    54  44  69 E9        30.08R
CINC-LUNKEN    CLEAR     52  47  83 CALM      30.10R
HAMILTON       MOCLDY    53  43  68 E5        30.10R
DAYTON         CLOUDY    54  40  59 NE10      30.11R
WRIGHT-PAT AFB CLOUDY    55  38  52 E7        30.10R
DAYTON GENERAL CLOUDY    56  41  57 E6        30.08R
WILMINGTON     PTCLDY    52  42  69 NE5       30.09R
$$

OHZ036-037-039>041-045>050-054>059-063>069-073>076-082>088-300200-
  CENTRAL AND SOUTHEAST OHIO

CITY           SKY/WX    TMP DP  RH WIND       PRES   REMARKS
COLUMBUS       MOCLDY    54  36  50 NE13      30.10F
OSU AIRPORT    CLEAR     53  37  54 NE8       30.12R
BOLTON FIELD   CLEAR     55  37  52 NE12      30.12R
RICKENBACK AFB CLEAR     53  36  52 NE8       30.10S
NEWARK         CLEAR     54  34  46 NE9       30.11F
MARION         CLEAR     46  34  62 NE13      30.16R
LANCASTER      CLEAR     56  37  49 NE12      30.10F
ZANESVILLE     CLEAR     55  34  45 NE6       30.14R
NEW PHILLY     NOT AVBL
$$




USA.gov is the U.S. government's official web portal to all federal, state and local government web resources and services.